Hourly Weather Roundup
Issued by NWS Central Illinois

Home | Current Version | Previous Version | Text Only | Print | Product List | Glossary On
Versions: 1 2 3 4 5 6 7 8 9 10 11 12 13 14 15 16 17 18 19 20 21 22 23 24 25 26 27 28 29 30 31 32 33 34 35 36 37 38 39 40 41 42 43 44 45 46 47 48 49 50
000
NZUS43 KILX 201510
HWRILX

Area Weather Roundup
National Weather Service Lincoln IL
1000 AM CDT THU JUL 20 2017

NOTE:  "FAIR" indicates few or no clouds below 12,000 feet, with
       no sigificant weather and/or obstructions to visibility.


CITY           SKY/WX    TMP DP  RH WIND       PRES   REMARKS
Bloomington    LGT RAIN  71  70  96 E10       30.11F
Champaign      LGT RAIN  77  74  90 SW6       30.11S
Danville       HVY RAIN  74  73  98 N8        30.13R
Decatur        LGT RAIN  80  73  79 CALM      30.11R HX  84
Effingham      CLOUDY    86  75  69 SW6       30.11R HX  95
Flora          CLOUDY    88  74  63 SW9       30.10S HX  96
Galesburg      CLOUDY    80  73  78 S7        30.02F HX  84
Jacksonville   MOSUNNY   85  74  68 SW7       30.06F HX  92
Lacon          CLOUDY    76  73  91 SE13      30.02F
Lawrenceville  CLOUDY    85  75  72 SW6       30.10F HX  93
Litchfield     PTSUNNY   84  74  71 W7        30.09S HX  91
$$


CITY           SKY/WX    TMP DP  RH WIND       PRES   REMARKS
Lincoln          N/A     81  77  89 NE7       30.10  HX  89
Macomb         CLOUDY    84  73  70 SW12      30.03F HX  90
Mattoon        PTSUNNY   84  76  76 W8        30.11R HX  93
Mt Carmel AP   CLOUDY    85  75  73 SW7       30.10F HX  93
Olney-Noble AP CLOUDY    86  78  76 SW6       30.10F HX  98
Paris AP       CLOUDY    80  76  89 W5        30.12S HX  86
Peoria         CLOUDY    76  74  93 E7        30.05F
Pontiac        CLOUDY    73  72  98 SE9       30.06F
Rantoul        LGT RAIN  77  74  92 E3        30.11F
Robinson       CLOUDY    83  75  79 SW3       30.11S HX  90
Springfield    CLOUDY    83  75  77 SW6       30.06F HX  90
Taylorville    CLOUDY    82  74  78 W3        30.09S HX  88
$$

...REGIONAL REPORTS...


CITY           SKY/WX    TMP DP  RH WIND       PRES   REMARKS
Chicago O`Hare CLOUDY    74  69  85 SW13G24   29.97F
Kankakee       CLOUDY    69  69  98 CALM      30.06F
Moline         CLOUDY    79  72  79 SE6       30.00S HX  82
Mount Sterling MOSUNNY   86  73  65 SW12      30.03F HX  93
Mount Vernon   CLOUDY    89  76  65 SW8       30.10  HX 100
Pittsfield     SUNNY     87  74  63 SW9G16    30.07F HX  95
Quincy         SUNNY     88  74  63 SW13      30.04F HX  96
Rockford       PTSUNNY   77  71  82 S10       30.00F
$$


CITY           SKY/WX    TMP DP  RH WIND       PRES   REMARKS
Burlington     MOSUNNY   86  76  71 CALM      30.01R HX  96
Cedar Rapids   CLOUDY    79  78  97 S6        29.98S HX  83
Des Moines     PTSUNNY   88  73  61 W8        29.96S HX  95
Kirksville     MOSUNNY   86  74  67 SW9G18    30.04F HX  94
Ottumwa        SUNNY     90  71  53 W14G21    29.98R HX  96
St Louis       CLOUDY    91  71  51 W7        30.10R HX  97
$$


CITY           SKY/WX    TMP DP  RH WIND       PRES   REMARKS
Terre Haute    CLOUDY    83  73  72 W5        30.12R HX  89
Evansville     CLOUDY    88  72  58 W10       30.12R HX  94
Indianapolis   CLOUDY    80  74  81 SW8       30.10S HX  85
Lafayette      RAIN      73  72  96 W10       30.12R FOG
Madison        PTSUNNY   74  69  85 SW7       29.99S
Milwaukee      CLOUDY    77  70  79 SW9       29.98R
$$






USA.gov is the U.S. government's official web portal to all federal, state and local government web resources and services.